User: anonymous   Login
Location: Unspecified
(0.0000°N, 0.0000°E)
Time: 04:59:25
(UTC+02:00)
Language:

DELTA 2 R/B (1) - Orbit

View from above orbital plane
View from above orbital plane
View from above satellite
View from above satellite

Ground track
Ground track

The orbit data is extracted from the following two-line orbital elements,

1 27665U 03005C   17147.58354355 -.00000032 +00000-0 +20882-4 0  9992
2 27665 039.5750 215.1747 0007827 135.9503 336.5675 14.28444652747894
Epoch (UTC): 27 May 2017 14:00:18
Eccentricity: 0.0007827
inclination: 39.5750°
perigee height: 791 km
apogee height: 802 km
right ascension of ascending node: 215.1747°
argument of perigee: 135.9503°
revolutions per day: 14.28444652
mean anomaly at epoch: 336.5675°
orbit number at epoch: 74789

The dashed part of the orbit path shows where the satellite is in the earth's shadow,  

DLR